Location: *
(43.4667°N, 11.6833°E)
Time: 22:21:10
(UTC+00:00)

Cosmos 1140 Rocket - Pass Details

Date: 19 July 2019
Orbit: 744 x 768 km, 74.1° (Epoch: 18 August)

Event Time Altitude Azimuth Distance (km) Brightness Sun altitude
Exits shadow 20:46:58 22° 178° (S) 1,592 4.7 -16.8°
Maximum altitude 20:50:10 60° 106° (ESE) 866 3.5 -17.2°
Drops below altitude 10° 20:55:17 10° 27° (NNE) 2,296 6.3 -17.7°
Sets 20:57:41 0° 24° (NNE) 3,230 7.2 -18.0°
